Home   Weather   Bismarck   Past weeks
Flag for USA

Past Weather in Bismarck, North Dakota, USA — Yesterday and Last 2 Weeks

Now
15 °F

Scattered clouds.


Feels Like: -1 °F
Forecast: 19 / 10 °F
Wind: 16 mph from Northwest

Location: Bismarck Municipal Airport

Current Time: Jan 22, 2019 at 10:45:05 am

Latest Report: Jan 22, 2019 at 9:52 am


Visibility: 10 mi

Pressure: 30.26 "Hg (28.31 "Hg at 513m altitude)

Humidity: 74%

Dew Point: 8 °F

Location of BismarckLocation

Past Weather in Bismarck — Graph

°F

Bismarck Temperature Yesterday

Maximum temperature yesterday: 13 °F (at 1:52 pm)
Minimum temperature yesterday: 6 °F (at 12:52 am)
Average temperature yesterday: 10 °F

High & Low Weather Summary for the Past Weeks

 TemperatureHumidityPressure
High45 °F (Jan 7, 1:52 pm)100% (Jan 13, 7:52 am)30.64 "Hg (Jan 13, 7:52 am)
Low-7 °F (Jan 18, 10:52 pm)49% (Jan 7, 1:52 pm)29.55 "Hg (Jan 7, 12:52 pm)
Average13 °F81%30.24 "Hg
* Reported Jan 7 9:52 am — Jan 22 9:38 am, Bismarck. Weather by CustomWeather, © 2019

Note: Actual official high and low records may vary slightly from our data, if they occured in-between our weather recording intervals... More about our weather records

Advertising

Bismarck Weather History for the Previous 24 Hours

Scroll right to see more
 ConditionsComfort  
Time TempWeatherWind HumidityBarometerVisibility
9:38 am
Tue, Jan 22
15 °FOvercast.13 mph74%30.16 "Hg10 mi
8:52 am15 °FOvercast.16 mph77%30.25 "Hg10 mi
7:52 am17 °FLight snow. Overcast.16 mph80%30.22 "Hg9 mi
6:52 am15 °FLight snow. Ice fog.3 mph87%30.20 "Hg4 mi
6:20 am14 °FLight snow. Ice fog.5 mph92%30.08 "Hg2 mi
5:52 am13 °FIce fog.6 mph92%30.19 "Hg4 mi
5:05 am12 °FLight snow. Ice fog.8 mph88%30.08 "Hg4 mi
3:52 am11 °FIce fog.9 mph88%30.16 "Hg6 mi
3:27 am11 °FLight snow. Ice fog.7 mph88%30.05 "Hg3 mi
3:08 am11 °FLight snow. Mostly cloudy.9 mph84%30.05 "Hg8 mi
1:52 am11 °FOvercast.9 mph81%30.14 "Hg10 mi
1:38 am11 °FMostly cloudy.12 mph77%30.03 "Hg10 mi
12:52 am11 °FOvercast.8 mph77%30.12 "Hg10 mi
11:52 pm
Mon, Jan 21
10 °FOvercast.10 mph84%30.12 "Hg8 mi
11:31 pm10 °FLight snow. Ice fog.9 mph84%30.00 "Hg3 mi
11:15 pm10 °FLight snow. Ice fog.9 mph84%29.99 "Hg2 mi
10:52 pm10 °FLight snow. Ice fog.8 mph84%30.10 "Hg2 mi
9:52 pm10 °FLight snow. Ice fog.5 mph84%30.09 "Hg1 mi
9:32 pm10 °FLight snow. Ice fog.6 mph84%29.97 "Hg1 mi
9:18 pm10 °FLight snow. Ice fog.5 mph84%29.97 "Hg2 mi
8:52 pm10 °FLight snow. Ice fog.9 mph84%30.06 "Hg1 mi
8:44 pm10 °FLight snow. Ice fog.10 mph84%29.95 "Hg2 mi
7:58 pm10 °FLight snow. Ice fog.9 mph84%29.93 "Hg2 mi
7:32 pm10 °FLight snow. Ice fog.10 mph84%29.92 "Hg2 mi
7:14 pm10 °FLight snow. Ice fog.10 mph84%29.91 "Hg2 mi
6:52 pm10 °FLight snow. Ice fog.9 mph84%30.01 "Hg2 mi
5:52 pm12 °FLight snow. Ice fog.12 mph84%29.98 "Hg5 mi
5:25 pm13 °FLight snow. Ice fog.9 mph84%29.86 "Hg3 mi
4:58 pm13 °FLight snow. Ice fog.9 mph88%29.86 "Hg2 mi
3:52 pm13 °FLight snow. Ice fog.8 mph88%29.95 "Hg2 mi
2:52 pm13 °FLight snow. Ice fog.8 mph88%29.94 "Hg2 mi
1:52 pm13 °FLight snow. Ice fog.9 mph84%29.93 "Hg2 mi
1:40 pm12 °FLight snow. Ice fog.9 mph88%29.82 "Hg2 mi
1:27 pm12 °FLight snow. Ice fog.10 mph88%29.82 "Hg2 mi
12:52 pm12 °FLight snow. Ice fog.14 mph88%29.94 "Hg1 mi
11:52 am12 °FLight snow. Ice fog.8 mph84%29.97 "Hg2 mi
10:52 am11 °FLight snow. Ice fog.8 mph88%29.98 "Hg3 mi
Weather by CustomWeather, © 2019

See weather overview